www.pogodaiklimat.ru

Погода и климат >> Архив погоды >> Колумбия >> Santa Marta


ПОГОДА в Santa Marta

  • Прогноз погоды в Santa Marta
  • Монитор погоды в Santa Marta
  • Климат города

АРХИВ ПОГОДЫ в Santa Marta

Время (UTC), дата Ветер
(напр.,м/с)
 
Видим.   Явления Облачность Т
(С)
Тd
(С)
f
(%)
Тe
(С)
Тes
(С)
Комфортность P
(гПа)
Po
(гПа)
Тmin
(С)
Tmax
(С)
R
(мм)
R24
(мм)
S
(см)
00 7.12 С 4 10 км мгла 5/1 600 м
[Cu Sc Ci fib]
+29.4 +20.6 59 +36 +36 очень
душно
1010.9 1010.4 +34.4
03 7.12 С 3 10 км мгла 4/1 600 м
[Cu Sc Ci fib]
+28.9 +18.7 54 +34 +34 очень
душно
1012.5 1012.0
12 7.12 СВ 2 8000 м мгла 4/1 600 м
[Cu Sc Ci sp]
+24.3 +20.8 81 +30 +31 очень
душно
1013.7 1013.2 +22.4
15 7.12 СВ 2 8000 м мгла 4/1 600 м
[Cu Sc Ci sp]
+29.2 +22.9 69 +39 +48 очень
душно
1014.9 1014.4
18 7.12 ЮЗ 5 10 км мгла 1/1 600 м
[Cu Sc]
+31.1 +22.2 59 +40 +47 очень
душно
1012.5 1012.0
21 7.12 С 6 10 км мгла 1/1 600 м
[Cu Sc]
+32.4 +21.9 54 +41 +42 опасность
перегрева
1010.6 1010.1
00 8.12 С 5 10 км мгла 1/1 600 м
[Cu Sc]
+27.8 +21.6 69 +36 +36 очень
душно
1011.5 1011.0 +34.1
03 8.12 В 2 10 км мгла 1/1 600 м
[Cu hum]
+26.1 +19.6 67 +32 +32 очень
душно
1012.9 1012.4
12 8.12 В 2 10 км мгла 1/1 600 м
[Sc]
+23.2 +19.7 81 +30 +31 очень
душно
1013.2 1012.7 +22.6
15 8.12 З 2 10 км мгла ясно +28.6 +23.8 75 +39 +50 очень
душно
1014.8 1014.3
18 8.12 З 3 10 км мгла 3/1 600 м
[Cu Sc Ci fib]
+31.4 +24.1 65 +43 +53 опасность
перегрева
1012.5 1012.0
21 8.12 С 6 10 км мгла 3/1 600 м
[Cu Sc Ci fib]
+33.0 +21.9 52 +41 +42 опасность
перегрева
1010.2 1009.7
00 9.12 СВ 6 10 км мгла 3/1 600 м
[Cu Sc Ci fib]
+28.6 +21.9 67 +37 +37 очень
душно
1011.7 1011.2 +33.4
03 9.12 СВ 6 10 км мгла 3/1 600 м
[Cu Sc Ci fib]
+26.8 +21.2 71 +34 +34 очень
душно
1012.6 1012.1
12 9.12 Ю 2 8000 м мгла 4/1 600 м
[Cu Sc Ci fib]
+23.8 +20.4 81 +29 +30 душно 1012.8 1012.3 +22.0
15 9.12 З 3 8000 м мгла 3/1 600 м
[Cu Sc Ci fib]
+29.8 +23.8 70 +41 +49 опасность
перегрева
1014.5 1014.0
21 9.12 СВ 5 10 км мгла 1/1 600 м
[Cu Sc]
+32.9 +22.0 53 +42 +43 опасность
перегрева
1009.8 1009.3
00 10.12 С 4 10 км мгла 1/1 600 м
[Cu hum]
+28.7 +22.6 70 +38 +38 очень
душно
1010.3 1009.8 +33.7
03 10.12 СВ 2 10 км мгла ясно +27.1 +21.5 71 +34 +34 очень
душно
1010.9 1010.4
12 10.12 штиль 0 10 км мгла 1/1 600 м
[Sc]
+23.0 +20.4 85 +30 +31 очень
душно
1012.5 1012.0 +22.2
15 10.12 ЮЗ 2 10 км мгла 1/1 600 м
[Cu Sc]
+28.4 +24.0 77 +39 +49 очень
душно
1013.8 1013.3
18 10.12 С 5 10 км мгла 1/1 600 м
[Cu Sc]
+34.7 +20.9 45 +42 +49 опасность
перегрева
1010.9 1010.4
21 10.12 СВ 7 10 км мгла 1/1 600 м
[Cu Sc]
+33.4 +21.5 50 +41 +42 опасность
перегрева
1009.5 1009.0
00 11.12 СВ 4 10 км мгла 3/1 600 м
[Sc Ci fib]
+29.2 +21.7 64 +37 +37 очень
душно
1010.4 1009.9 +35.0
12 11.12 СВ 3 10 км мгла 5/0 600 м
[]
+24.2 +20.0 77 +30 +30 очень
душно
1012.7 1012.2 +22.4
15 11.12 З 2 10 км мгла 4/3 600 м
[Cu Sc Ci sp]
+28.2 +23.2 74 +38 +45 очень
душно
1014.5 1014.0
18 11.12 С 5 10 км мгла 4/3 600 м
[Cu Sc Ci sp]
+34.0 +21.9 49 +42 +47 опасность
перегрева
1012.3 1011.8
21 11.12 С 6 10 км мгла 4/3 600 м
[Cu Sc Ci sp]
+33.4 +21.5 50 +41 +42 опасность
перегрева
1010.4 1009.9
00 12.12 СВ 7 10 км мгла 4/1 600 м
[Cu Sc Ci sp]
+28.5 +22.2 69 +37 +37 очень
душно
1011.1 1010.6 +34.8
03 12.12 СВ 4 10 км мгла 4/1 600 м
[Cu Sc Ci sp]
+27.7 +21.3 68 +35 +35 очень
душно
1012.4 1011.9
12 12.12 В 2 10 км мгла 1/1 600 м
[Sc]
+23.6 +21.0 85 +30 +30 очень
душно
1012.6 1012.1 +22.6
18 12.12 СЗ 2 10 км мгла 4/1 600 м
[Cu Sc Ci fib]
+31.2 +24.7 68 +44 +56 опасность
перегрева
1010.9 1010.4
21 12.12 С 8 10 км мгла 4/1 600 м
[Cu Sc Ci fib]
+32.6 +23.3 58 +43 +44 опасность
перегрева
1008.9 1008.4
00 13.12 СВ 8 10 км мгла 4/1 600 м
[Cu Sc Ci fib]
+28.4 +22.6 71 +38 +38 очень
душно
1009.9 1009.4 +35.0
03 13.12 СВ 5 10 км мгла 4/1 600 м
[Cu Sc Ci fib]
+28.0 +22.5 72 +37 +37 очень
душно
1011.0 1010.5
12 13.12 ЮВ 2 8000 м мгла {гроза} 5/1 600 м
[Cu Sc Ci sp]
+25.2 +23.7 91 +34 +35 очень
душно
1012.0 1011.5 +23.4
15 13.12 З 2 8000 м мгла 4/1 600 м
[Cu Sc Ci fib]
+28.8 +25.9 84 +43 +52 опасность
перегрева
1013.5 1013.0
18 13.12 ЮЗ 2 10 км мгла 1/1 600 м
[Cu Sc]
+33.3 +24.3 59 +45 +58 опасность
перегрева
1011.0 1010.5
21 13.12 ЮЗ 2 10 км мгла 1/1 600 м
[Cu Sc]
+32.6 +24.1 61 +45 +47 опасность
перегрева
1009.0 1008.5

 

Местоположение метеостанции Santa Marta (Колумбия): широта 11.13 долгота -74.23 высота над уровнем моря 14 м.

В архиве по умолчанию представлена погода в Santa Marta за последнюю неделю. Архивные данные за месяц целиком и за предыдущие месяцы, начиная с января 2011 года, Вы можете получить, выбрав интересующий диапазон дат из раскрывающегося списка и нажав кнопку "Ввод!".


*Определитесь, кто Вы:
робот инопланетянин человек

Внимание! Время в таблицах - всемирное. Для получения местного времени необходимо прибавить поправку, которая в Santa Marta равна -5 ч.

Смотрите также архив погоды в соседних городах и на ближайших метеорологических станциях:

Погода в Barranquilla (Колумбия) (66 км)
Погода в Valledupar (Колумбия) (132 км)
Погода в Riohacha (Колумбия) (149 км)
Погода в Cartagena (Колумбия) (159 км)
Погода в Maracaibo - La Chinit (Венесуэла) (280 км)
Погода в Maracaibo - La Canada (Венесуэла) (290 км)
Погода в Monteria (Колумбия) (312 км)
Погода в Mene Grande (Венесуэла) (389 км)
Погода в El Vigia (Венесуэла) (397 км)
Погода в Cucuta (Колумбия) (403 км)

Пояснения к столбцам:

Ветер - указаны скорость ветра в м/с - средняя за 10 мин, порывы в срок и между сроками (в фигурных скобках) и направление, откуда дует ветер: С - северный, СВ - северо-восточный, В - восточный, ЮВ - юго-восточный, Ю - южный, ЮЗ - юго-западный, З - западный, СЗ - северо-западный.
Видимость - горизонтальная дальность видимости в метрах или километрах. При видимости от 1 до 10 км при отсутствии осадков обычно наблюдается дымка, при ухудшении видимости до 1 км и менее - туман. В сухую погоду видимость может ухудшаться дымом, пылью или мглою.
Явления - указаны атмосферные явления, наблюдавшиеся в срок или в последний час перед сроком; фигурными скобками обозначены явления, наблюдавшиеся между сроками (за 1-3 часа до срока); квадратными скобками обозначены град или гололедные отложения с указанием их диаметра в мм.
Облачность - указаны через наклонную черту общая и нижняя облачность в баллах и высота нижней границы облаков в метрах; квадратными скобками обозначены формы облаков: Ci - перистые, Cs - перисто-слоистые, Cc - перисто-кучевые, Ac - высококучевые, As - высокослоистые, Sc - слоисто-кучевые, Ns - слоисто-дождевые, Cu - кучевые, Cb - кучево-дождевые. Подробнее классификацию облаков см. в Атласе облаков (PDF).
T - Температура воздуха - температура, измеренная на высоте 2 м над землей.
Td - Температура точки росы - температура, при понижении до которой содержащийся в воздухе водяной пар достигнет насыщения.
f - Относительная влажность воздуха - влажноcть воздуха, измеренная на высоте 2 м над землей.
Te - Эффективная температура - температура, которую ощущает одетый по сезону человек в тени. Характеристика душности погоды. При расчете учитывается влияние влажности воздуха и скорости ветра на теплоощущения человека.
Tes - Эффективная температура на солнце - температура, которую ощущает человек, с поправкой на солнечный нагрев. Характеристика знойности погоды. Зависит от высоты солнца над горизонтом, облачности и скорости ветра. Ночью, в пасмурную погоду, а также при ветре 12 м/с и более поправка равна нулю.
P - Атмосферное давление - приведенное к уровню моря атмосферное давление.
Po - Атмосферное давление - измеренное на уровне метеостанции атмосферное давление.
Tmin - Минимальная температура - минимум температуры воздуха на высоте 2 м над землей.
Tmax - Максимальная температура - максимум температуры воздуха на высоте 2 м над землей.
R - Количество осадков - Количество выпавших осадков за период времени, мм. При наведении курсора мыши на число - период времени, за который выпало указанное количество осадков.
R24 - Количество осадков - Количество выпавших осадков за 24 часа, мм.
S - Снежный покров - Высота снежного покрова, см. При наведении курсора мыши на число - состояние снежного покрова и степень покрытия местности в баллах.